HAZ2639 ZSHC-ZUUU

Flight info

Callsign HAZ2639
Flight time 2h 30m
Altitude 34100
Route NIVIK8D NIVIK W135 DOGVI W545 VEMEX W73 MADUK W51 LEGIV W164 ADGOL W50 XSH W80 URGEG W231 EKOKA EKOKA2E
Aircraft B77W/H-SDE1E2E3FGHIJ2J3J4J5M1RWXY/LB1D1

Departure

Time 2026-05-04 08:35
Airport Hangzhou Xiaoshan International Airport (ZSHC)

Arrival

Time 2026-05-04 11:05
Airport Chengdu Shuangliu International Airport (ZUUU)
Time Latitude Longitude Altitude Speed Heading
2026-05-04 08:16 30.24155 120.42695 35 ft 0 kts 162°
2026-05-04 08:24 30.24175 120.42688 35 ft 2 kts 163°
2026-05-04 08:24 30.24189 120.42683 35 ft 2 kts 163°
2026-05-04 08:24 30.24203 120.42679 35 ft 2 kts 163°
2026-05-04 08:24 30.24217 120.42674 35 ft 2 kts 171°
2026-05-04 08:25 30.24232 120.42674 35 ft 2 kts 196°
2026-05-04 08:25 30.24245 120.42681 35 ft 2 kts 216°
2026-05-04 08:25 30.24256 120.42693 35 ft 2 kts 235°
2026-05-04 08:25 30.24263 120.42709 35 ft 2 kts 246°
2026-05-04 08:26 30.24269 120.42724 35 ft 2 kts 244°
2026-05-04 08:27 30.24274 120.42736 35 ft 0 kts 243°
2026-05-04 08:28 30.24271 120.42728 35 ft 4 kts 243°
2026-05-04 08:28 30.24241 120.42662 35 ft 10 kts 242°
2026-05-04 08:29 30.24208 120.42588 35 ft 10 kts 242°
2026-05-04 08:29 30.24190 120.42501 35 ft 12 kts 291°
2026-05-04 08:29 30.24271 120.42432 35 ft 16 kts 333°
2026-05-04 08:31 30.24730 120.43318 35 ft 17 kts 63°
2026-05-04 08:33 30.25160 120.43990 35 ft 12 kts 324°
2026-05-04 08:33 30.25182 120.43907 35 ft 11 kts 248°
2026-05-04 08:35 30.21917 120.36536 2118 ft 222 kts 242°
2026-05-04 08:35 30.21193 120.34905 2657 ft 237 kts 242°
2026-05-04 08:35 30.20415 120.33154 3234 ft 252 kts 242°
2026-05-04 08:35 30.19592 120.31305 3884 ft 263 kts 243°
2026-05-04 08:37 30.15917 120.19396 6857 ft 276 kts 295°
2026-05-04 08:37 30.17125 120.17651 7521 ft 280 kts 325°
2026-05-04 08:37 30.18726 120.16536 8686 ft 267 kts 332°
2026-05-04 08:38 30.20338 120.15508 9521 ft 267 kts 332°
2026-05-04 08:38 30.21955 120.14483 10276 ft 270 kts 332°
2026-05-04 08:38 30.23629 120.13421 10712 ft 284 kts 332°
2026-05-04 08:40 30.38087 120.04218 14497 ft 372 kts 330°
2026-05-04 08:40 30.40381 120.02751 15345 ft 377 kts 329°
2026-05-04 08:40 30.42673 120.01284 16128 ft 383 kts 329°
2026-05-04 08:41 30.45005 119.99789 16920 ft 387 kts 328°
2026-05-04 08:41 30.47393 119.98257 17753 ft 391 kts 328°
2026-05-04 08:41 30.49772 119.96730 18491 ft 395 kts 328°
2026-05-04 08:41 30.52173 119.95186 19255 ft 399 kts 327°
2026-05-04 08:42 30.54598 119.93624 20052 ft 401 kts 327°
2026-05-04 08:42 30.57050 119.92043 20811 ft 403 kts 326°
2026-05-04 08:42 30.59515 119.90471 21483 ft 409 kts 328°
2026-05-04 08:42 30.62189 119.89256 22120 ft 421 kts 338°
2026-05-04 08:43 30.65071 119.88603 22712 ft 434 kts 347°
2026-05-04 08:43 30.68129 119.88463 23287 ft 444 kts 352°
2026-05-04 08:43 30.71244 119.88178 23763 ft 443 kts 344°
2026-05-04 08:43 30.74221 119.87428 24171 ft 444 kts 337°
2026-05-04 08:44 30.77146 119.86300 24726 ft 443 kts 332°
2026-05-04 08:44 30.80004 119.84887 25310 ft 442 kts 327°
2026-05-04 08:46 30.98532 119.71590 29117 ft 454 kts 315°
2026-05-04 08:46 31.01112 119.69447 29702 ft 456 kts 315°
2026-05-04 08:46 31.03691 119.67280 30364 ft 455 kts 314°
2026-05-04 08:46 31.06237 119.65125 31137 ft 451 kts 314°
2026-05-04 08:47 31.08771 119.62968 31903 ft 447 kts 314°
2026-05-04 08:47 31.11266 119.60834 32602 ft 443 kts 313°
2026-05-04 08:47 31.13753 119.58698 33236 ft 440 kts 313°
2026-05-04 08:47 31.16229 119.56564 33747 ft 438 kts 313°
2026-05-04 08:48 31.18666 119.54459 34074 ft 439 kts 313°
2026-05-04 08:48 31.23538 119.50241 34120 ft 436 kts 313°
2026-05-04 08:49 31.28403 119.46018 34114 ft 434 kts 313°
2026-05-04 08:50 31.45351 119.31257 34127 ft 433 kts 313°
2026-05-04 08:51 31.50173 119.27042 34130 ft 434 kts 314°
2026-05-04 08:51 31.55016 119.22807 34125 ft 434 kts 314°
2026-05-04 08:52 31.59822 119.18565 34122 ft 433 kts 313°
2026-05-04 08:52 31.64623 119.14301 34128 ft 434 kts 313°
2026-05-04 08:54 31.81590 118.95155 34081 ft 413 kts 294°
2026-05-04 08:55 31.83800 118.88967 34115 ft 404 kts 281°
2026-05-04 08:55 31.84571 118.82507 34124 ft 397 kts 269°
2026-05-04 09:01 31.74090 118.16209 34102 ft 401 kts 248°
2026-05-04 09:01 31.71872 118.10242 34112 ft 399 kts 253°
2026-05-04 09:02 31.70479 118.03937 34104 ft 399 kts 258°
2026-05-04 09:02 31.69179 117.97615 34112 ft 397 kts 258°
2026-05-04 09:03 31.67886 117.91343 34113 ft 397 kts 257°
2026-05-04 09:03 31.66583 117.85042 34113 ft 397 kts 257°
2026-05-04 09:04 31.65276 117.78741 34103 ft 398 kts 257°
2026-05-04 09:04 31.63958 117.72404 34106 ft 398 kts 257°
2026-05-04 09:05 31.62649 117.66128 34104 ft 397 kts 257°
2026-05-04 09:05 31.61334 117.59834 34103 ft 398 kts 257°
2026-05-04 09:06 31.60100 117.53513 34098 ft 397 kts 259°
2026-05-04 09:08 31.55602 117.28091 34100 ft 402 kts 259°
2026-05-04 09:08 31.54477 117.21714 34097 ft 399 kts 259°
2026-05-04 09:09 31.53346 117.15312 34081 ft 401 kts 259°
2026-05-04 09:09 31.52214 117.08934 34076 ft 399 kts 259°
2026-05-04 09:10 31.51082 117.02573 34099 ft 399 kts 259°
2026-05-04 09:10 31.49947 116.96218 34077 ft 399 kts 259°
2026-05-04 09:11 31.48806 116.89855 34090 ft 399 kts 258°
2026-05-04 09:11 31.46935 116.83704 34075 ft 401 kts 246°
2026-05-04 09:12 31.43831 116.78256 34094 ft 408 kts 237°
2026-05-04 09:14 31.30020 116.57250 34130 ft 406 kts 238°
2026-05-04 09:14 31.26580 116.52013 34136 ft 407 kts 238°
2026-05-04 09:15 31.23119 116.46751 34145 ft 407 kts 238°
2026-05-04 09:15 31.19670 116.41516 34166 ft 404 kts 238°
2026-05-04 09:17 31.04181 116.18076 34199 ft 406 kts 237°
2026-05-04 09:18 31.00738 116.12882 34236 ft 406 kts 237°
2026-05-04 09:18 30.97296 116.07697 34217 ft 404 kts 237°
2026-05-04 09:19 30.93861 116.02528 34225 ft 405 kts 237°
2026-05-04 09:19 30.90412 115.97347 34182 ft 404 kts 237°
2026-05-04 09:20 30.86942 115.92141 34163 ft 404 kts 237°
2026-05-04 09:20 30.83521 115.86990 34145 ft 403 kts 238°
2026-05-04 09:21 30.80112 115.81821 34166 ft 403 kts 238°
2026-05-04 09:21 30.76692 115.76630 34114 ft 405 kts 238°
2026-05-04 09:22 30.73276 115.71456 34109 ft 402 kts 238°
2026-05-04 09:22 30.69871 115.66305 34124 ft 404 kts 238°
2026-05-04 09:23 30.66453 115.61141 34161 ft 405 kts 238°
2026-05-04 09:23 30.63046 115.56004 34114 ft 400 kts 238°
2026-05-04 09:25 30.51109 115.38049 34007 ft 401 kts 238°
2026-05-04 09:25 30.49409 115.35497 34085 ft 403 kts 238°
2026-05-04 09:26 30.46402 115.30023 34120 ft 396 kts 248°
2026-05-04 09:26 30.44793 115.24224 34127 ft 392 kts 261°
2026-05-04 09:27 30.44497 115.17943 34123 ft 394 kts 272°
2026-05-04 09:27 30.45106 115.11628 34114 ft 392 kts 274°
2026-05-04 09:28 30.45741 115.05366 34123 ft 395 kts 274°
2026-05-04 09:28 30.46386 114.99054 34109 ft 395 kts 275°
2026-05-04 09:29 30.47034 114.92709 34101 ft 395 kts 275°
2026-05-04 09:29 30.47677 114.86398 34091 ft 397 kts 274°
2026-05-04 09:30 30.48321 114.80067 34084 ft 393 kts 275°
2026-05-04 09:30 30.48961 114.73727 34081 ft 398 kts 275°
2026-05-04 09:31 30.49593 114.67448 34171 ft 396 kts 275°
2026-05-04 09:31 30.49912 114.64269 33985 ft 395 kts 274°
2026-05-04 09:31 30.50228 114.61102 34091 ft 396 kts 275°
2026-05-04 09:32 30.50860 114.54760 34081 ft 397 kts 275°
2026-05-04 09:34 30.53362 114.29337 34104 ft 396 kts 274°
2026-05-04 09:34 30.53982 114.22952 34103 ft 398 kts 275°
2026-05-04 09:35 30.54585 114.16644 34099 ft 398 kts 274°
2026-05-04 09:35 30.55192 114.10246 34100 ft 398 kts 275°
2026-05-04 09:37 30.57597 113.84699 34086 ft 399 kts 273°
2026-05-04 09:38 30.57566 113.78280 34085 ft 399 kts 267°
2026-05-04 09:38 30.57323 113.71839 34086 ft 398 kts 267°
2026-05-04 09:39 30.57080 113.65410 34082 ft 399 kts 267°
2026-05-04 09:39 30.56836 113.58997 34077 ft 399 kts 267°
2026-05-04 09:40 30.56589 113.52570 34080 ft 399 kts 268°
2026-05-04 09:40 30.56339 113.46124 34076 ft 400 kts 268°
2026-05-04 09:42 30.55309 113.20344 34084 ft 400 kts 267°
2026-05-04 09:43 30.55046 113.13972 34084 ft 400 kts 267°
2026-05-04 09:43 30.54777 113.07469 34076 ft 402 kts 267°
2026-05-04 09:44 30.54509 113.01047 34078 ft 400 kts 267°
2026-05-04 09:46 30.53394 112.75189 34066 ft 401 kts 267°
2026-05-04 09:46 30.53106 112.68684 34065 ft 404 kts 267°
2026-05-04 09:47 30.52817 112.62237 34064 ft 403 kts 267°
2026-05-04 09:49 30.51619 112.36227 34047 ft 405 kts 267°
2026-05-04 09:51 30.50532 112.13541 34053 ft 405 kts 267°
2026-05-04 09:51 30.50215 112.07066 34054 ft 405 kts 267°
2026-05-04 09:52 30.49891 112.00535 34047 ft 406 kts 267°
2026-05-04 09:52 30.49566 111.94036 34064 ft 406 kts 267°
2026-05-04 09:53 30.49235 111.87492 34054 ft 406 kts 267°
2026-05-04 09:53 30.48903 111.80977 34054 ft 407 kts 267°
2026-05-04 09:54 30.48565 111.74421 34057 ft 406 kts 267°
2026-05-04 09:54 30.48225 111.67927 34054 ft 406 kts 267°
2026-05-04 09:55 30.47877 111.61418 34060 ft 407 kts 267°
2026-05-04 09:55 30.47524 111.54867 34065 ft 407 kts 267°
2026-05-04 09:56 30.47135 111.48330 34053 ft 407 kts 264°
2026-05-04 09:56 30.46269 111.41801 34071 ft 408 kts 262°
2026-05-04 09:57 30.45381 111.35353 34088 ft 408 kts 263°
2026-05-04 09:57 30.44481 111.28853 34108 ft 407 kts 262°
2026-05-04 09:58 30.43573 111.22321 34120 ft 410 kts 262°
2026-05-04 09:58 30.42670 111.15862 34140 ft 409 kts 262°
2026-05-04 10:00 30.39007 110.89860 34191 ft 409 kts 262°
2026-05-04 10:04 30.32475 110.44410 34199 ft 410 kts 263°
2026-05-04 10:04 30.31523 110.37884 34202 ft 409 kts 263°
2026-05-04 10:05 30.30575 110.31406 34226 ft 411 kts 263°
2026-05-04 10:05 30.29620 110.24902 34230 ft 411 kts 263°
2026-05-04 10:06 30.28663 110.18407 34237 ft 410 kts 262°
2026-05-04 10:06 30.27703 110.11914 34241 ft 411 kts 262°
2026-05-04 10:08 30.24322 109.89234 34260 ft 409 kts 263°
2026-05-04 10:08 30.23347 109.82748 34253 ft 411 kts 263°
2026-05-04 10:09 30.22367 109.76253 34249 ft 409 kts 263°
2026-05-04 10:09 30.21382 109.69754 34231 ft 412 kts 263°
2026-05-04 10:10 30.20396 109.63273 34217 ft 411 kts 263°
2026-05-04 10:10 30.19031 109.56838 34199 ft 415 kts 257°
2026-05-04 10:11 30.17346 109.50494 34189 ft 414 kts 257°
2026-05-04 10:11 30.15652 109.44120 34178 ft 414 kts 257°
2026-05-04 10:12 30.13960 109.37759 34166 ft 416 kts 257°
2026-05-04 10:12 30.12256 109.31369 34189 ft 415 kts 257°
2026-05-04 10:13 30.10543 109.24950 34189 ft 416 kts 257°
2026-05-04 10:13 30.08836 109.18579 34190 ft 414 kts 257°
2026-05-04 10:14 30.07136 109.12264 34197 ft 416 kts 257°
2026-05-04 10:16 30.00337 108.86855 34184 ft 414 kts 258°
2026-05-04 10:16 29.98660 108.80478 34183 ft 416 kts 257°
2026-05-04 10:17 29.96985 108.74136 34180 ft 415 kts 258°
2026-05-04 10:19 29.90307 108.48948 34163 ft 415 kts 257°
2026-05-04 10:19 29.88615 108.42603 34173 ft 415 kts 258°
2026-05-04 10:20 29.86916 108.36242 34180 ft 415 kts 258°
2026-05-04 10:20 29.85213 108.29874 34210 ft 423 kts 258°
2026-05-04 10:21 29.84327 108.26558 34218 ft 434 kts 257°
2026-05-04 10:21 29.83457 108.23308 34221 ft 443 kts 257°
2026-05-04 10:21 29.81600 108.16398 34215 ft 455 kts 257°
2026-05-04 10:22 29.78797 108.06010 34189 ft 455 kts 257°
2026-05-04 10:23 29.76922 107.99080 34158 ft 458 kts 257°
2026-05-04 10:25 29.69314 107.71143 34199 ft 455 kts 257°
2026-05-04 10:25 29.67417 107.64223 34185 ft 454 kts 258°
2026-05-04 10:26 29.66232 107.57134 34184 ft 448 kts 271°
2026-05-04 10:26 29.66900 107.50011 34161 ft 445 kts 285°
2026-05-04 10:27 29.68639 107.43182 34141 ft 444 kts 287°
2026-05-04 10:27 29.70413 107.36340 34118 ft 445 kts 285°
2026-05-04 10:28 29.71812 107.29376 34127 ft 445 kts 284°
2026-05-04 10:28 29.73534 107.22532 34126 ft 445 kts 293°
2026-05-04 10:29 29.76793 107.16508 34115 ft 447 kts 308°
2026-05-04 10:29 29.81326 107.11452 34113 ft 451 kts 313°
2026-05-04 10:30 29.85964 107.06591 34115 ft 452 kts 314°
2026-05-04 10:30 29.90618 107.01717 34112 ft 452 kts 314°
2026-05-04 10:31 29.95285 106.96824 34111 ft 450 kts 314°
2026-05-04 10:32 30.11584 106.79693 34129 ft 451 kts 314°
2026-05-04 10:33 30.16254 106.74769 34124 ft 452 kts 314°
2026-05-04 10:33 30.20934 106.69828 34123 ft 452 kts 314°
2026-05-04 10:34 30.25583 106.64912 34108 ft 452 kts 315°
2026-05-04 10:34 30.30228 106.59996 34104 ft 451 kts 314°
2026-05-04 10:35 30.34874 106.55070 34102 ft 453 kts 315°
2026-05-04 10:35 30.39541 106.50117 34094 ft 454 kts 315°
2026-05-04 10:36 30.44163 106.45204 34100 ft 452 kts 315°
2026-05-04 10:36 30.48806 106.40262 34093 ft 453 kts 315°
2026-05-04 10:37 30.53456 106.35307 34101 ft 453 kts 315°
2026-05-04 10:37 30.58104 106.30338 34101 ft 452 kts 313°
2026-05-04 10:39 30.68690 106.12482 34110 ft 447 kts 302°
2026-05-04 10:39 30.70333 106.09438 34095 ft 448 kts 299°
2026-05-04 10:39 30.71699 106.06138 33924 ft 448 kts 292°
2026-05-04 10:40 30.72623 106.02669 34068 ft 451 kts 285°
2026-05-04 10:40 30.73160 105.95355 34236 ft 457 kts 270°
2026-05-04 10:40 30.72770 105.91670 33942 ft 460 kts 265°
2026-05-04 10:41 30.72232 105.88019 34219 ft 460 kts 265°
2026-05-04 10:41 30.71687 105.84326 34100 ft 461 kts 265°
2026-05-04 10:41 30.71152 105.80674 34090 ft 460 kts 265°
2026-05-04 10:42 30.70084 105.73310 34094 ft 459 kts 265°
2026-05-04 10:42 30.69028 105.65993 34082 ft 460 kts 265°
2026-05-04 10:43 30.67972 105.58667 34085 ft 458 kts 266°
2026-05-04 10:45 30.63727 105.29404 34092 ft 458 kts 265°
2026-05-04 10:45 30.61835 105.22279 34073 ft 469 kts 251°
2026-05-04 10:45 30.60186 105.18950 34075 ft 480 kts 243°
2026-05-04 10:46 30.58085 105.15848 34087 ft 485 kts 237°
2026-05-04 10:46 30.53653 105.09963 34085 ft 481 kts 237°
2026-05-04 10:47 30.49282 105.04170 34071 ft 468 kts 237°
2026-05-04 10:47 30.45087 104.98598 34063 ft 458 kts 238°
2026-05-04 10:47 30.43005 104.95834 33934 ft 448 kts 237°
2026-05-04 10:49 30.36488 104.73443 28583 ft 425 kts 283°
2026-05-04 10:49 30.37193 104.70143 27811 ft 429 kts 291°
2026-05-04 10:50 30.38355 104.66924 27051 ft 432 kts 298°
2026-05-04 10:51 30.54264 104.53033 26427 ft 394 kts 314°
2026-05-04 10:52 30.56045 104.50611 25670 ft 395 kts 306°
2026-05-04 10:52 30.57454 104.47885 24869 ft 397 kts 297°
2026-05-04 10:52 30.58500 104.44874 24050 ft 399 kts 291°
2026-05-04 10:54 30.60928 104.22578 18360 ft 397 kts 295°
2026-05-04 10:54 30.62025 104.19643 17573 ft 396 kts 295°
2026-05-04 10:56 30.75332 104.07550 14124 ft 348 kts
2026-05-04 10:56 30.77619 104.08366 13655 ft 348 kts 25°
2026-05-04 10:56 30.79713 104.09786 13146 ft 347 kts 31°
2026-05-04 10:57 30.81820 104.11211 12576 ft 346 kts 22°
2026-05-04 10:57 30.84115 104.11925 12019 ft 343 kts
2026-05-04 10:57 30.86489 104.11745 11440 ft 341 kts 345°
2026-05-04 10:57 30.88654 104.10606 10854 ft 339 kts 324°
2026-05-04 10:58 30.90320 104.08683 10264 ft 338 kts 304°
2026-05-04 10:58 30.91297 104.06255 9683 ft 336 kts 283°
2026-05-04 10:58 30.91488 104.03590 9096 ft 334 kts 263°
2026-05-04 10:58 30.90788 104.01024 8433 ft 327 kts 239°
2026-05-04 10:59 30.89342 103.99065 7845 ft 316 kts 216°
2026-05-04 10:59 30.87406 103.97966 7270 ft 307 kts 193°
2026-05-04 10:59 30.85305 103.97881 6692 ft 300 kts 168°
2026-05-04 10:59 30.83353 103.98646 6143 ft 294 kts 158°
2026-05-04 11:00 30.81473 103.99565 5591 ft 288 kts 158°
2026-05-04 11:01 30.69916 104.00281 3759 ft 194 kts 202°
2026-05-04 11:02 30.68724 103.99730 3547 ft 175 kts 201°
2026-05-04 11:02 30.67626 103.99231 3355 ft 157 kts 202°
2026-05-04 11:05 30.57039 103.94478 1644 ft 11 kts 135°
2026-05-04 11:06 30.57050 103.94548 1644 ft 10 kts 25°
2026-05-04 11:06 30.57123 103.94576 1644 ft 13 kts 21°
2026-05-04 11:06 30.57222 103.94621 1644 ft 15 kts 22°
2026-05-04 11:06 30.57307 103.94676 1644 ft 12 kts 55°
2026-05-04 11:08 30.57283 103.95022 1644 ft 0 kts 76°